Volver al catálogo

STARLINK-5286

ActivoComunicacionesVLEO
NORAD 55294·PAYLOAD·🇺🇸 United States

Lanzado Jan 19, 2023 desde Vandenberg Space Force Base

Loading…

Próximos Pases (próximas 24 horas)

TLE

ActualizadoSource: CelesTrak SupGP

Época: Sep 15, 2026, 02:40 UTC

1 55294C 23010AB  26258.11159722 -.00007392  00000+0 -61936-3 0  2580
2 55294  69.9995 286.7318 0003801 266.9093  50.4413 14.98341229    17

Sigue STARLINK-5286 en tiempo real con AllMySat

Download on the App Store